TimeCDT,TemperatureF,Dew PointF,Humidity,Sea Level PressureIn,VisibilityMPH,Wind Direction,Wind SpeedMPH,Gust SpeedMPH,PrecipitationIn,Events,Conditions,WindDirDegrees,DateUTC
12:10 AM,64.4,62.6,94,29.88,1.2,Calm,Calm,-,N/A,,Clear,0,2013-07-22 05:10:00
12:22 AM,64.4,62.6,94,29.87,4.0,Calm,Calm,-,N/A,,Clear,0,2013-07-22 05:22:00
12:52 AM,64.0,63.0,96,29.86,4.0,Calm,Calm,-,N/A,,Clear,0,2013-07-22 05:52:00
1:52 AM,63.0,62.1,97,29.83,2.5,Calm,Calm,-,N/A,,Clear,0,2013-07-22 06:52:00
2:01 AM,64.4,62.6,94,29.84,1.2,SSE,3.5,-,N/A,,Clear,150,2013-07-22 07:01:00
2:13 AM,62.6,62.6,100,29.84,0.8,Calm,Calm,-,N/A,,Mist,0,2013-07-22 07:13:00
2:45 AM,62.6,60.8,94,29.84,0.2,Calm,Calm,-,N/A,Fog,Fog,0,2013-07-22 07:45:00
2:52 AM,62.1,62.1,100,29.83,0.2,Calm,Calm,-,N/A,Fog,Fog,0,2013-07-22 07:52:00
3:01 AM,62.6,62.6,100,29.84,0.2,Calm,Calm,-,N/A,Fog,Fog,0,2013-07-22 08:01:00
3:52 AM,61.0,60.1,97,29.81,0.2,Calm,Calm,-,N/A,Fog,Fog,0,2013-07-22 08:52:00
4:13 AM,60.8,60.8,100,29.83,0.2,ESE,3.5,-,N/A,Fog,Fog,110,2013-07-22 09:13:00
4:34 AM,60.8,60.8,100,29.83,0.2,Calm,Calm,-,N/A,Fog,Fog,0,2013-07-22 09:34:00
4:52 AM,61.0,60.1,97,29.82,0.2,Calm,Calm,-,N/A,Fog,Fog,0,2013-07-22 09:52:00
4:56 AM,60.8,60.8,100,29.83,0.2,Calm,Calm,-,N/A,Fog,Fog,0,2013-07-22 09:56:00
5:42 AM,59.0,59.0,100,29.83,0.2,Calm,Calm,-,N/A,Fog,Fog,0,2013-07-22 10:42:00
5:52 AM,59.0,59.0,100,29.82,0.2,Calm,Calm,-,N/A,Fog,Fog,0,2013-07-22 10:52:00
6:52 AM,63.0,63.0,100,29.81,0.1,South,4.6,-,N/A,Fog,Fog,180,2013-07-22 11:52:00
7:42 AM,64.4,64.4,100,29.82,0.8,South,4.6,-,N/A,,Mist,170,2013-07-22 12:42:00
7:52 AM,64.9,64.9,100,29.81,0.8,SSE,5.8,-,N/A,,Overcast,160,2013-07-22 12:52:00
8:34 AM,66.2,66.2,100,29.84,5.0,SSE,5.8,-,N/A,,Overcast,150,2013-07-22 13:34:00
8:52 AM,68.0,66.9,96,29.84,8.0,South,5.8,-,N/A,,Overcast,170,2013-07-22 13:52:00
9:18 AM,71.6,66.2,83,29.84,10.0,SSE,6.9,-,N/A,,Partly Cloudy,150,2013-07-22 14:18:00
9:52 AM,73.0,66.9,81,29.83,10.0,South,5.8,-,N/A,,Scattered Clouds,170,2013-07-22 14:52:00
10:52 AM,77.0,68.0,74,29.82,10.0,SSE,5.8,-,N/A,,Clear,160,2013-07-22 15:52:00
11:52 AM,79.0,69.1,72,29.81,10.0,South,9.2,-,N/A,,Clear,170,2013-07-22 16:52:00
12:52 PM,82.9,72.0,69,29.78,10.0,South,8.1,-,N/A,,Clear,180,2013-07-22 17:52:00
1:52 PM,84.9,73.0,67,29.76,10.0,South,8.1,-,N/A,,Scattered Clouds,170,2013-07-22 18:52:00
2:52 PM,87.1,73.0,63,29.76,10.0,SSW,8.1,-,N/A,,Mostly Cloudy,210,2013-07-22 19:52:00
3:52 PM,89.1,73.0,59,29.74,10.0,SW,10.4,-,N/A,,Partly Cloudy,220,2013-07-22 20:52:00
4:52 PM,88.0,72.0,59,29.74,10.0,SW,11.5,-,N/A,,Scattered Clouds,220,2013-07-22 21:52:00
5:52 PM,87.1,72.0,61,29.73,10.0,SSW,10.4,-,N/A,,Partly Cloudy,210,2013-07-22 22:52:00
6:52 PM,82.9,72.0,69,29.72,10.0,SSW,6.9,-,N/A,,Clear,210,2013-07-22 23:52:00
7:44 PM,75.2,62.6,65,29.80,10.0,NNW,26.5,39.1,N/A,,Squalls,340,2013-07-23 00:44:00
7:52 PM,75.0,62.1,64,29.79,10.0,NNW,20.7,29.9,0.00,Rain,Light Rain,330,2013-07-23 00:52:00
7:59 PM,73.4,62.6,69,29.81,10.0,NNW,18.4,27.6,0.01,Rain,Light Rain,340,2013-07-23 00:59:00
8:30 PM,68.0,62.6,83,29.87,5.0,NNW,17.3,28.8,0.07,Rain-Thunderstorm,Thunderstorms and Rain,340,2013-07-23 01:30:00
8:52 PM,69.1,63.0,81,29.81,10.0,NE,9.2,-,0.12,Rain-Thunderstorm,Light Thunderstorms and Rain,40,2013-07-23 01:52:00
9:00 PM,69.8,62.6,78,29.81,10.0,ENE,6.9,-,0.00,Rain-Thunderstorm,Light Thunderstorms and Rain,70,2013-07-23 02:00:00
9:48 PM,69.8,62.6,78,29.82,8.0,East,6.9,-,0.04,Rain,Rain,100,2013-07-23 02:48:00
9:52 PM,69.1,64.0,84,29.79,8.0,SSE,8.1,-,0.05,Rain,Rain,150,2013-07-23 02:52:00
10:52 PM,70.0,59.0,68,29.78,10.0,NE,6.9,-,0.00,,Partly Cloudy,40,2013-07-23 03:52:00
11:52 PM,70.0,59.0,68,29.77,10.0,WSW,8.1,-,N/A,,Partly Cloudy,250,2013-07-23 04:52:00